Other Public Products
Issued by NWS Grand Forks, ND

Home | Current Version | Previous Version | Graphics & Text | Print | Product List | Glossary On
Versions: 1 2 3 4 5 6 7 8 9 10 11 12 13 14 15 16 17 18 19 20 21 22 23 24 25 26 27 28 29 30 31 32 33 34 35 36 37 38 39 40 41 42 43 44 45 46 47 48 49 50
000
FPUS83 KFGF 272110
OPUFGF
PRAIRIE TO PINES WEATHER ROUNDUP
NATIONAL WEATHER SERVICE EASTERN NORTH DAKOTA/GRAND FORKS ND
400 PM CDT WED AUG 27 2014

 **SATELLITE DATA USED TO AUGMENT SKY COVER AT AUTOMATED STATIONS**
 *****  WEATHER ACROSS EASTERN NORTH DAKOTA  *****

CITY           SKY/WX    TMP DP  RH WIND       PRES   REMARKS
GRAND FORKS    MOSUNNY   73  55  53 S10       30.11F
GRAND FORKS AF MOSUNNY   73  58  59 SW8       30.12F
GRAND CITY NWS   N/A     72 N/A N/A SE9         N/A
BUXTON         NOT AVBL
DEVILS LAKE    MOSUNNY   73  55  53 S7        30.09F
FARGO          CLOUDY    73  58  59 SE10      30.13F
WAHPETON ARPT  PTCLDY    73  57  56 S7        30.14S
$$

 *****  WEATHER ACROSS CENTRAL AND WESTERN NORTH DAKOTA  *****

CITY           SKY/WX    TMP DP  RH WIND       PRES   REMARKS
JAMESTOWN      MOSUNNY   74  59  59 S12       30.11F
BISMARCK       MOSUNNY   77  59  53 SE6       30.09F
MINOT          SUNNY     77  54  44 S13G20    30.04F
MINOT AFB      SUNNY     77  53  44 S9        30.03F
GARRISON         N/A     76  58  53 S10       30.07F
WILLISTON      SUNNY     83  51  33 S10       30.00F
DICKINSON      MOSUNNY   77  55  46 S8        30.06F
HETTINGER      SUNNY     76  56  49 SE8       30.08F
$$

 *****  OTHER OBSERVATIONS NORTHEAST NORTH DAKOTA  *****

CITY           SKY/WX    TMP DP  RH WIND       PRES   REMARKS
WALHALLA         N/A     73  52  46 S13       30.09F
LANGDON        FAIR      73  50  43 SW16      30.10F
CAVALIER       FAIR      73  54  49 S9G16     30.10F
GRAFTON        FAIR      73  50  43 S7        30.11F
CANDO          FAIR      73  57  56 S12G17    30.09F
FORT TOTTEN      N/A     74  55  51 S7        29.95S
ROLLA          FAIR      70  55  60 S10G16    30.10F
RUGBY          FAIR      73  57  56 S12       30.07F
 ***** THE ABOVE OBSERVATIONS ARE NON NWS ARE NOT QUALITY
        CONTROLLED AND MAY MIS-REPORT RAIN FOR SNOW...
$$

 *****  OTHER OBSERVATIONS SOUTHEAST NORTH DAKOTA *****

CITY           SKY/WX    TMP DP  RH WIND       PRES   REMARKS
COOPERSTOWN    NOT AVBL
VALLEY CITY    FAIR      72  59  64 S8        30.13F
OAKES            N/A     73  63  68 SE8       30.12F
GWINNER        PTCLDY    75  61  60 S7        30.13F
SHEYENNE NWR     N/A     74  60  61 SE7       29.95
BUFFALO        NOT AVBL
WYNDMERE       NOT AVBL
 ***** THE ABOVE OBSERVATIONS ARE NON NWS ARE NOT QUALITY
       CONTROLLED AND MAY MIS-REPORT RAIN FOR SNOW...
$$

  *****  WEATHER ACROSS NORTHERN MINNESOTA  *****

CITY           SKY/WX    TMP DP  RH WIND       PRES   REMARKS
FLAG ISLAND    SUNNY     68  52  56 S7        30.13F
WARROAD        SUNNY     70  52  52 E7        30.14F
ROSEAU         SUNNY     73  52  46 SW5       30.13F
HALLOCK        SUNNY     73  52  46 S9        30.10F
THF RVR FALLS  SUNNY     72  50  46 S7        30.14F
HALSTAD          N/A     73  52  46 SE2         N/A
FOSSTON        MOSUNNY   72  54  53 S7        30.16F
BAUDETTE       SUNNY     71  47  42 CALM      30.14F
WASKISH        SUNNY     70  54  56 CALM      30.15F
CROOKSTON      SUNNY     73  52  46 S7        30.14F
$$
  *****  WEATHER ACROSS CENTRAL AND WEST MINNESOTA  *****

CITY           SKY/WX    TMP DP  RH WIND       PRES   REMARKS
BEMIDJI        MOSUNNY   70  51  49 W3        30.16S
PARK RAPIDS    PTSUNNY   69  55  60 S9        30.16F
WADENA         CLOUDY    66  57  72 CALM      30.17F
DETROIT LAKES  PTSUNNY   68  57  68 S6        30.17F
MOORHEAD       PTSUNNY   73  61  64 S5        30.14F
FERGUS FALLS   PTSUNNY   72  55  56 S7        30.14F
ELBOW LAKE     FAIR      72  58  62 CALM      30.15F
MORRIS MN      MOSUNNY   75  57  53 SE5       30.14F
STAPLES        CLOUDY    66  55  68 S5        30.18S
WHEATON        MOSUNNY   70  59  68 S7        30.15F
$$
  *****  WEATHER ELSEWHERE ACROSS MINNESOTA  *****

CITY           SKY/WX    TMP DP  RH WIND       PRES   REMARKS
DULUTH         MOSUNNY   71  48  43 W10       30.17F
INTRNTL FALLS  SUNNY     71  51  49 SW7       30.14F
ELY            PTSUNNY   64  48  55 W8        30.17S
CLOQUET        MOSUNNY   70  46  43 W8        30.17F
BRAINERD       CLOUDY    67  56  67 S8        30.18F
HIBBING        MOSUNNY   72  46  39 W9        30.17F
ALEXANDRIA     MOSUNNY   71  56  58 CALM      30.17F
SAINT CLOUD    SUNNY     76  56  49 SE3       30.16F
MINNEAPOLIS    PTSUNNY   76  54  46 SE7       30.15F
$$

  *****  WEATHER ACROSS SOUTH DAKOTA  *****

CITY           SKY/WX    TMP DP  RH WIND       PRES   REMARKS
SIOUX FALLS    PTSUNNY   73  64  73 SE12      30.12S
BROOKINGS      NOT AVBL
WATERTOWN      PTSUNNY   73  59  61 SE7       30.12F
HURON          PTSUNNY   78  64  61 SE9       30.07F
SISSETON         N/A     74  60  61 SE12      30.12F
ABERDEEN       CLOUDY    70  59  68 SE10      30.11F
MITCHELL       CLOUDY    76  66  71 S15       30.09F
PIERRE         CLOUDY    77  66  68 SE13      30.03F
MOBRIDGE       CLOUDY    68  62  81 SE8       30.07F
RAPID CITY     CLOUDY    73  62  68 SE9       30.09S
$$

  *****  SOME WEATHER IN NEARBY STATES *****

CITY           SKY/WX    TMP DP  RH WIND       PRES   REMARKS
GLASGOW MT     SUNNY     85  48  27 SW7       29.94F
GREAT FALLS MT SUNNY     83  43  24 W7        30.02F
CHEYENNE WY    PTSUNNY   67  52  58 N9        30.19F
SCOTTSBLUFF NE LGT RAIN  62  62 100 NW6       30.11F
OMAHA NE       CLOUDY    74  69  85 CALM      30.06F
DES MOINES IA  CLOUDY    76  67  73 E8        30.10F
DAVENPORT IA   CLOUDY    75  64  68 NE6       30.13F
CHICAGO IL     CLOUDY    76  61  59 NE13      30.13S
EAU CLAIRE WI  MOSUNNY   75  55  49 N5        30.16F
LA CROSSE WI   PTSUNNY   78  58  49 W6        30.15F
$$

  *****  SOME NATIONAL WEATHER *****

CITY           SKY/WX    TMP DP  RH WIND       PRES   REMARKS
LA GUARDIA NY  MOSUNNY   87  64  46 S15       29.88F
RALEIGH NC     MOSUNNY   86  58  38 VRB6      29.99F
ATLANTA GA     MOSUNNY   87  59  38 NW8       30.05F
NEW ORLEANS LA PTSUNNY   87  74  64 E10       29.98F HX  95
OKLAHOMA CITY  PTSUNNY   94  65  38 SE13      30.02F HX  96
ALBUQUERQUE NM CLOUDY    78  50  37 W5        30.25F
SALT LAKE CITY PTSUNNY   72  51  47 N8        30.21F
LOS ANGELES CA MOSUNNY   82  57  42 W14       30.02S
BOISE ID       SUNNY     86  40  19 W7        30.09F
SEATTLE WA     MOSUNNY   81  55  40 S6        30.04F
$$

*** WEATHER ACROSS MANITOBA...SASKATCHEWAN AND ONTARIO ***
                ***ONTARIO***

CITY           SKY/WX    TMP DP  RH WIND       PRES   REMARKS
GERALDTON      CLOUDY    59  46  63 N5        30.12S
THUNDER BAY    PTSUNNY   66  46  48 NW9       30.15F
SIOUX LOOKOUT  MOSUNNY   64  45  48 W6        30.14F
TORONTO        PTSUNNY   75  54  46 NW14G22   30.03S
BIG TROUT LK     N/A     57  46  67 S7          N/A
PICKLE LAKE    MOSUNNY   64  43  45 W8        30.10F
DRYDEN         PTSUNNY   66  46  48 SW7       30.14F
KENORA         MOSUNNY   68  48  49 SW10      30.14F
$$
                *** MANITOBA***

CITY           SKY/WX    TMP DP  RH WIND       PRES   REMARKS
BRANDON        SUNNY     75  55  50 SW8       30.05F
DAUPHIN        SUNNY     79  55  44 SW15G21   29.97F
ISLAND LAKE    NOT AVBL
PILOT MOUND      N/A     72  52  49 S12G20      N/A
THE PAS        PTSUNNY   84  55  37 W14       29.78F
THOMPSON       PTSUNNY   75  59  57 S9        29.73F
WINNIPEG       MOSUNNY   77  50  38 S13G22    30.08F
LYNN LAKE      MOSUNNY   77  57  50 MISG      29.66F
CHURCHILL      LGT RAIN  61  54  77 S9        29.70F
GILLAM         MOSUNNY   73  55  53 S9        29.77F
$$
                ***SASKATCHEWAN***

CITY           SKY/WX    TMP DP  RH WIND       PRES   REMARKS
ESTEVAN        MOSUNNY   79  52  38 S13       30.00F
KINDERSLEY     MOSUNNY   86  50  28 W18G25    29.83F
LLOYDMINSTER   MOSUNNY   75  52  43 N7        29.86F
PRINCE ALBERT  PTSUNNY   79  59  50 W7        29.82S
REGINA         MOSUNNY   82  55  39 SW12      29.92F



USA.gov is the U.S. government's official web portal to all federal, state and local government web resources and services.